Regional Weather Roundup
Issued by NWS

Home | Current Version | Previous Version | Graphics & Text | Print | Product List | Glossary On
Versions: 1 2 3 4 5 6 7 8 9 10 11 12 13 14 15 16 17 18 19 20 21 22 23 24 25 26 27 28 29 30 31 32 33 34 35 36 37 38 39 40 41 42 43 44 45 46 47 48 49 50
252
ASUS45 KSLC 250010
RWRUT

UTAH REGIONAL WEATHER ROUNDUP
NATIONAL WEATHER SERVICE SALT LAKE CITY UT
600 PM MDT SAT SEP 24 2016

UTZ001>011-023>025-250100-

NORTHERN UTAH

CITY           SKY/WX    TMP DP  RH WIND       PRES   REMARKS
BRIGHAM CITY     N/A     61  42  50 SW7       30.29R
HILL AFB       MOSUNNY   59  42  53 VRB3      30.30R
LOGAN          SUNNY     60  41  49 CALM      30.28R
OGDEN          SUNNY     60  41  49 CALM      30.29R
PROVO AIRPORT  SUNNY     58  43  57 W5        30.31R
SALT LAKE CITY MOSUNNY   62  44  51 N7        30.29R
VERNAL         CLOUDY    59  36  42 CALM      30.23R
WENDOVER       SUNNY     64  41  42 SE10      30.29R
HEBER CITY     SUNNY     57  32  38 N9        30.29R
WEST JORDAN    SUNNY     59  40  49 NW9       30.31R

$$

UTZ012>022-026-027-250100-

SOUTHERN/CENTRAL UTAH

CITY           SKY/WX    TMP DP  RH WIND       PRES   REMARKS
BLANDING       CLOUDY    60  32  35 CALM      30.30R
BRYCE CANYON   SUNNY     56  33  42 NW15      30.32R
CEDAR CITY     SUNNY     64  30  27 N10       30.25F
DELTA          SUNNY     61  34  36 NW12G20   30.28S
MILFORD        SUNNY     65  37  35 NE14      30.26R
MOAB/CYNLANDS  CLOUDY    64  39  39 NW12      30.19R
PRICE          SUNNY     56  34  43 NW16G23   30.26R
ST GEORGE      CLEAR     81  36  19 NE6       30.12S

$$

REGIONAL REPORTS     COLORADO/ARIZONA

CITY           SKY/WX    TMP DP  RH WIND       PRES   REMARKS
CRAIG, CO      CLOUDY    47  41  80 W12       30.29R
GRAND JUNCTION CLOUDY    58  40  51 NW3       30.23R
RIFLE          LGT RAIN  51  44  77 CALM      30.29R
MONTROSE       CLOUDY    56  36  47 N3        30.27R
CORTEZ         CLOUDY    58  36  43 VRB5      30.22S
PAGE, AZ       SUNNY     71  33  24 VRB3      30.14F
GRAND CANYON   SUNNY     64  32  30 E12       30.27R
KINGMAN        SUNNY     79  32  18 N12       30.11S
FLAGSTAFF      SUNNY     61  27  27 E13       30.24R

$$

REGIONAL REPORTS    NEVADA/IDAHO/WYOMING

CITY           SKY/WX    TMP DP  RH WIND       PRES   REMARKS
LAS VEGAS, NV  MOSUNNY   87  22   9 NE10      30.05S
ELY            SUNNY     64  32  30 N10       30.33R
ELKO           SUNNY     68  22  17 NW10      30.33R
POCATELLO, ID  MOSUNNY   60  39  45 SW18      30.28R
BURLEY         SUNNY     58  36  43 W13G21    30.28R
EVANSTON, WY   CLOUDY    48  32  53 NW13      30.35R
ROCK SPRINGS   CLOUDY    46  37  71 W10       30.27R

$$




USA.gov is the U.S. government's official web portal to all federal, state and local government web resources and services.